GW2231 Weather Reports


time (UTC)temp
C
wind
direction
speed
KPH
gust
KPH
rain 1hr
cm
rain 24hr
cm
rain mn
cm
humidity
%
barometer
mb
20260906030001 30 355 0.0 3.2 0.00 0.00 0.00 69 1010.6
20260906025501 30 355 0.0 0.0 0.00 0.00 0.00 68 1010.6
20260906023000 30 355 0.0 3.2 0.00 0.00 0.00 65 1010.4
20260906022500 30 355 1.6 3.2 0.00 0.00 0.00 65 1010.4
20260906022000 30 355 1.6 3.2 0.00 0.00 0.00 65 1010.3
20260906021501 30 355 0.0 0.0 0.00 0.00 0.00 66 1010.2
20260906015502 30 15 0.0 0.0 0.00 0.00 0.00 66 1009.9
20260906015002 30 17 0.0 0.0 0.00 0.00 0.00 66 1009.8
20260906014500 30 315 0.0 0.0 0.00 0.00 0.00 65 1009.8
20260906014000 30 315 0.0 0.0 0.00 0.00 0.00 65 1009.7
20260906013003 30 315 0.0 0.0 0.00 0.00 0.00 65 1009.7
20260906012000 31 315 0.0 0.0 0.00 0.00 0.00 64 1009.6
20260906011502 31 315 0.0 0.0 0.00 0.00 0.00 64 1009.6
20260906011000 31 315 0.0 0.0 0.00 0.00 0.00 63 1009.6
20260906010500 31 315 0.0 0.0 0.00 0.00 0.00 63 1009.5
20260906010000 31 315 0.0 0.0 0.00 0.00 0.00 62 1009.5
20260906005501 31 315 0.0 0.0 0.00 0.00 0.00 63 1009.4
20260906005000 31 315 0.0 0.0 0.00 0.00 0.00 62 1009.3
20260906004500 32 315 0.0 0.0 0.00 0.00 0.00 61 1009.4
20260906004002 32 315 0.0 0.0 0.00 0.00 0.00 61 1009.4
20260906000502 33 9 0.0 3.2 0.00 0.00 0.00 59 1009.6
20260905235500 33 334 1.6 6.4 0.00 0.00 0.00 58 1009.7
20260905235000 33 25 1.6 6.4 0.00 0.00 0.00 57 1009.7
20260905234500 33 335 3.2 6.4 0.00 0.00 0.00 57 1009.6
20260905233502 34 14 3.2 6.4 0.00 0.00 0.00 56 1009.5
20260905232000 35 12 4.8 12.9 0.00 0.00 0.00 52 1009.6
20260905231501 36 5 3.2 8.0 0.00 0.00 0.00 51 1009.4
20260905230501 36 303 1.6 3.2 0.00 0.00 0.00 51 1009.4
20260905230001 36 9 1.6 3.2 0.00 0.00 0.00 51 1009.5
20260905223001 36 298 4.8 12.9 0.00 0.00 0.00 48 1009.3
20260905222000 37 10 3.2 8.0 0.00 0.00 0.00 47 1009.4
20260905221500 37 355 1.6 14.5 0.00 0.00 0.00 47 1009.4
20260905221002 37 248 3.2 12.9 0.00 0.00 0.00 49 1009.4
20260905215500 37 320 3.2 11.3 0.00 0.00 0.00 47 1009.3
20260905215002 37 258 4.8 11.3 0.00 0.00 0.00 47 1009.3
20260905214500 37 24 1.6 17.7 0.00 0.00 0.00 48 1009.3
20260905212501 37 360 3.2 16.1 0.00 0.00 0.00 44 1009.4
20260905211002 37 320 3.2 8.0 0.00 0.00 0.00 46 1009.2
20260905210502 37 317 1.6 9.7 0.00 0.00 0.00 47 1009.3
20260905210000 37 311 4.8 9.7 0.00 0.00 0.00 44 1009.4
20260905205459 37 333 1.6 9.7 0.00 0.00 0.00 46 1009.5
20260905204459 38 292 6.4 11.3 0.00 0.00 0.00 45 1009.7
20260905203959 37 331 3.2 14.5 0.00 0.00 0.00 45 1009.7
20260905203000 37 322 4.8 9.7 0.00 0.00 0.00 43 1009.7
20260905202459 38 269 6.4 9.7 0.00 0.00 0.00 46 1009.7
20260905201959 37 15 0.0 11.3 0.00 0.00 0.00 47 1009.6
20260905201459 37 330 0.0 11.3 0.00 0.00 0.00 46 1009.8
20260905193500 37 274 6.4 16.1 0.00 0.00 0.00 45 1010.4
20260905193003 37 227 4.8 14.5 0.00 0.00 0.00 44 1010.5
20260905192502 37 294 6.4 12.9 0.00 0.00 0.00 46 1010.5
20260905192001 37 233 3.2 16.1 0.00 0.00 0.00 46 1010.5
20260905191459 37 279 9.7 16.1 0.00 0.00 0.00 46 1010.6
20260905191002 37 16 1.6 12.9 0.00 0.00 0.00 47 1010.7
20260905190500 37 5 4.8 12.9 0.00 0.00 0.00 47 1010.6
20260905185000 37 355 6.4 11.3 0.00 0.00 0.00 48 1010.9
20260905184500 37 341 3.2 9.7 0.00 0.00 0.00 48 1010.9
20260905183501 37 320 3.2 9.7 0.00 0.00 0.00 48 1011.0
20260905182459 37 338 1.6 6.4 0.00 0.00 0.00 49 1011.1
20260905182002 37 350 3.2 11.3 0.00 0.00 0.00 49 1011.2
20260905181502 37 342 4.8 16.1 0.00 0.00 0.00 49 1011.2
20260905181000 38 330 4.8 16.1 0.00 0.00 0.00 48 1011.2
20260905180003 38 185 3.2 9.7 0.00 0.00 0.00 50 1011.2
20260905174002 37 212 0.0 3.2 0.00 0.00 0.00 53 1011.4
20260905173502 37 78 0.0 4.8 0.00 0.00 0.00 55 1011.4
20260905173000 36 249 1.6 9.7 0.00 0.00 0.00 53 1011.5
20260905172502 36 337 3.2 11.3 0.00 0.00 0.00 52 1011.5
20260905171502 36 19 1.6 4.8 0.00 0.00 0.00 54 1011.7
20260905170003 35 196 1.6 9.7 0.00 0.00 0.00 57 1012.0
20260905165002 35 341 4.8 9.7 0.00 0.00 0.00 56 1012.0
20260905163501 34 166 4.8 9.7 0.00 0.00 0.00 60 1012.3
20260905163000 34 209 4.8 11.3 0.00 0.00 0.00 59 1012.3
20260905162502 34 127 3.2 8.0 0.00 0.00 0.00 59 1012.4
20260905161502 33 254 3.2 11.3 0.00 0.00 0.00 61 1012.3
20260905160501 33 231 4.8 12.9 0.00 0.00 0.00 62 1012.3
20260905160001 33 322 4.8 8.0 0.00 0.00 0.00 61 1012.3
20260905155500 33 288 1.6 9.7 0.00 0.00 0.00 62 1012.4
20260905155000 32 254 3.2 9.7 0.00 0.00 0.00 64 1012.5
20260905154459 32 249 1.6 8.0 0.00 0.00 0.00 64 1012.5
20260905153459 32 220 3.2 8.0 0.00 0.00 0.00 63 1012.4
20260905152459 32 304 4.8 16.1 0.00 0.00 0.00 65 1012.5
20260905152000 32 232 3.2 14.5 0.00 0.00 0.00 65 1012.4
20260905151500 32 211 6.4 14.5 0.00 0.00 0.00 65 1012.4
20260905151001 31 205 1.6 6.4 0.00 0.00 0.00 67 1012.5
20260905150000 31 301 4.8 9.7 0.00 0.00 0.00 66 1012.4
20260905144459 31 307 4.8 12.9 0.00 0.00 0.00 65 1012.3
20260905144000 31 277 3.2 11.3 0.00 0.00 0.00 66 1012.4
20260905143500 31 321 3.2 12.9 0.00 0.00 0.00 68 1012.2
20260905142000 30 244 6.4 11.3 0.00 0.00 0.00 70 1012.3
20260905141501 30 279 1.6 8.0 0.00 0.00 0.00 72 1012.3
20260905135503 28 205 1.6 6.4 0.00 0.00 0.00 78 1012.3
20260905134002 27 185 0.0 0.0 0.00 0.00 0.00 85 1012.2
20260905133003 26 185 0.0 3.2 0.00 0.00 0.00 87 1012.1
20260905132500 26 185 0.0 4.8 0.00 0.00 0.00 86 1012.1
20260905131000 25 254 0.0 1.6 0.00 0.00 0.00 89 1012.1
20260905125959 25 254 0.0 6.4 0.00 0.00 0.00 90 1012.0
20260905124000 24 208 0.0 0.0 0.00 0.00 0.00 91 1011.9
20260905122500 24 208 0.0 0.0 0.00 0.00 0.00 92 1011.7
20260905121958 23 217 0.0 0.0 0.00 0.00 0.00 92 1011.7
20260905120959 23 178 0.0 0.0 0.00 0.00 0.00 92 1011.6
20260905120459 23 175 0.0 0.0 0.00 0.00 0.00 92 1011.6
20260905115958 23 175 0.0 0.0 0.00 0.00 0.00 92 1011.6
20260905114958 23 146 0.0 0.0 0.00 0.00 0.00 92 1011.5
20260905114500 23 146 0.0 0.0 0.00 0.00 0.00 92 1011.4
20260905113959 23 146 0.0 0.0 0.00 0.00 0.00 92 1011.4
20260905113458 23 146 0.0 0.0 0.00 0.00 0.00 92 1011.4
20260905112459 23 135 0.0 0.0 0.00 0.00 0.00 92 1011.5
20260905111459 23 89 0.0 0.0 0.00 0.00 0.00 91 1011.4
20260905110958 24 89 0.0 0.0 0.00 0.00 0.00 91 1011.3
20260905110002 24 89 0.0 0.0 0.00 0.00 0.00 91 1011.3
20260905105002 24 89 0.0 0.0 0.00 0.00 0.00 90 1011.2
20260905104500 24 89 0.0 0.0 0.00 0.00 0.00 91 1011.2
20260905103500 24 89 0.0 0.0 0.00 0.00 0.00 90 1011.2
20260905103000 24 89 0.0 0.0 0.00 0.00 0.00 90 1011.2
20260905101001 24 89 0.0 0.0 0.00 0.00 0.00 90 1011.2
20260905100459 24 89 0.0 0.0 0.00 0.00 0.00 90 1011.3
20260905100000 24 89 0.0 0.0 0.00 0.00 0.00 90 1011.3
20260905094500 24 89 0.0 0.0 0.00 0.00 0.00 90 1011.3
20260905093459 24 89 0.0 0.0 0.00 0.00 0.00 89 1011.3
20260905092959 25 89 0.0 0.0 0.00 0.00 0.00 89 1011.2
20260905092459 25 89 0.0 0.0 0.00 0.00 0.00 89 1011.2
20260905091500 25 89 0.0 0.0 0.00 0.00 0.00 88 1011.3
20260905090500 25 89 0.0 0.0 0.00 0.00 0.00 88 1011.2
20260905090002 25 89 0.0 0.0 0.00 0.00 0.00 88 1011.3
20260905085501 25 89 0.0 0.0 0.00 0.00 0.00 88 1011.2
20260905084500 25 89 0.0 0.0 0.00 0.00 0.00 87 1011.3
20260905083500 25 89 0.0 0.0 0.00 0.00 0.00 87 1011.3
20260905081502 25 89 0.0 0.0 0.00 0.00 0.00 86 1011.4
20260905080500 25 89 0.0 0.0 0.00 0.00 0.00 86 1011.6
20260905075959 25 89 0.0 0.0 0.00 0.00 0.00 86 1011.7
20260905073959 25 89 0.0 0.0 0.00 0.00 0.00 86 1011.8
20260905073500 25 89 0.0 0.0 0.00 0.00 0.00 86 1011.8
20260905072000 25 89 0.0 0.0 0.00 0.00 0.00 86 1011.7
20260905070959 26 89 0.0 0.0 0.00 0.00 0.00 85 1011.7
20260905070459 26 89 0.0 0.0 0.00 0.00 0.00 85 1011.8
20260905065001 26 89 0.0 0.0 0.00 0.00 0.00 85 1011.8
20260905064459 26 89 0.0 0.0 0.00 0.00 0.00 84 1011.8
20260905064001 26 89 0.0 0.0 0.00 0.00 0.00 84 1011.8
20260905063500 26 89 0.0 0.0 0.00 0.00 0.00 84 1011.8
20260905062959 26 89 0.0 0.0 0.00 0.00 0.00 84 1011.8
20260905062502 26 89 0.0 0.0 0.00 0.00 0.00 84 1011.8
20260905061959 26 89 0.0 0.0 0.00 0.00 0.00 83 1011.8
20260905060001 26 89 0.0 0.0 0.00 0.00 0.00 83 1011.9
20260905055502 26 89 0.0 0.0 0.00 0.00 0.00 83 1012.0
20260905055003 26 89 0.0 0.0 0.00 0.00 0.00 82 1012.0
20260905054502 26 89 0.0 0.0 0.00 0.00 0.00 82 1012.0
20260905054002 26 89 0.0 0.0 0.00 0.00 0.00 82 1012.0
20260905053502 26 89 0.0 0.0 0.00 0.00 0.00 82 1012.0
20260905053003 26 89 0.0 0.0 0.00 0.00 0.00 82 1012.0
20260905052502 26 89 0.0 0.0 0.00 0.00 0.00 82 1012.0
20260905050002 27 89 0.0 0.0 0.00 0.00 0.00 80 1011.8
20260905045002 27 89 0.0 0.0 0.00 0.00 0.00 80 1011.8
20260905043502 27 89 0.0 0.0 0.00 0.00 0.00 79 1011.8
20260905043002 27 89 0.0 0.0 0.00 0.00 0.00 79 1011.8
20260905042002 27 89 0.0 0.0 0.00 0.00 0.00 79 1011.7
20260905035002 28 89 0.0 0.0 0.00 0.00 0.00 77 1011.7
20260905034002 28 89 0.0 0.0 0.00 0.00 0.00 77 1011.7
20260905032501 28 89 0.0 0.0 0.00 0.00 0.00 76 1011.9
20260905030501 28 89 0.0 0.0 0.00 0.00 0.00 74 1011.9